DW4776 Weather Reports


time (UTC)temp
C
wind
direction
speed
KPH
gust
KPH
rain 1hr
cm
rain 24hr
cm
rain mn
cm
humidity
%
barometer
mb
20260902093046 12 25 3.2 8.0 0.00 0.00 0.00 58 1008.0
20260902091539 13 64 3.2 6.4 0.00 0.00 0.00 56 1008.2
20260902090045 14 68 3.2 6.4 0.00 0.00 0.00 53 1008.4
20260902084557 15 35 3.2 6.4 0.00 0.00 0.00 51 1008.7
20260902083046 16 84 1.6 4.8 0.00 0.00 0.00 48 1008.8
20260902081559 16 88 3.2 6.4 0.00 0.00 0.00 47 1008.7
20260902080044 17 40 4.8 12.9 0.00 0.00 0.00 44 1008.8
20260902074543 17 189 6.4 17.7 0.00 0.00 0.00 45 1008.8
20260902073051 17 94 3.2 6.4 0.00 0.00 0.00 44 1008.8
20260902071544 17 252 0.0 4.8 0.00 0.00 0.00 43 1008.8
20260902070046 17 252 1.6 4.8 0.00 0.00 0.00 43 1008.7
20260902064549 18 252 3.2 8.0 0.00 0.00 0.00 41 1008.9
20260902063050 19 252 1.6 17.7 0.00 0.00 0.00 39 1008.9
20260902060044 20 176 11.3 24.1 0.00 0.00 0.00 37 1008.9
20260902054549 20 166 14.5 29.0 0.00 0.00 0.00 37 1008.8
20260902053046 20 144 16.1 27.4 0.00 0.00 0.00 36 1008.9
20260902051545 20 133 16.1 27.4 0.00 0.00 0.00 36 1008.9
20260902050050 20 106 17.7 30.6 0.00 0.00 0.00 37 1009.0
20260902044544 21 122 12.9 25.7 0.00 0.00 0.00 36 1009.1
20260902043042 21 104 11.3 22.5 0.00 0.00 0.00 36 1009.1
20260902041544 21 95 9.7 20.9 0.00 0.00 0.00 36 1009.1
20260902040046 21 109 11.3 22.5 0.00 0.00 0.00 36 1009.2
20260902034541 21 138 11.3 22.5 0.00 0.00 0.00 36 1009.3
20260902033045 20 112 12.9 19.3 0.00 0.00 0.00 35 1009.3
20260902031548 20 110 11.3 19.3 0.00 0.00 0.00 35 1009.4
20260902030042 18 105 6.4 12.9 0.00 0.00 0.00 36 1009.4
20260902024543 19 62 3.2 6.4 0.00 0.00 0.00 34 1009.3
20260902023052 21 60 4.8 8.0 0.00 0.00 0.00 30 1009.4
20260902021544 23 105 1.6 9.7 0.00 0.00 0.00 25 1009.3
20260902020043 25 145 1.6 6.4 0.00 0.00 0.00 24 1009.3
20260902014548 25 134 1.6 8.0 0.00 0.00 0.00 23 1009.3
20260902013043 26 101 3.2 9.7 0.00 0.00 0.00 22 1009.1
20260902011550 26 116 6.4 14.5 0.00 0.00 0.00 22 1009.3
20260902010050 26 107 6.4 17.7 0.00 0.00 0.00 22 1009.3
20260902004544 27 127 11.3 20.9 0.00 0.00 0.00 21 1009.1
20260902003048 27 121 11.3 20.9 0.00 0.00 0.00 21 1009.1
20260902001544 27 110 8.0 17.7 0.00 0.00 0.00 21 1009.4
20260902000047 27 89 6.4 14.5 0.00 0.00 0.00 21 1009.3
20260901234543 27 171 4.8 20.9 0.00 0.00 0.00 21 1009.4
20260901233042 28 186 16.1 22.5 0.00 0.00 0.00 20 1009.5
20260901231541 27 170 4.8 22.5 0.00 0.00 0.00 22 1009.6
20260901230043 27 182 16.1 27.4 0.00 0.00 0.00 21 1009.8
20260901224544 27 220 16.1 27.4 0.00 0.00 0.00 20 1010.0
20260901223046 27 138 12.9 30.6 0.00 0.00 0.00 21 1010.1
20260901221555 27 173 17.7 25.7 0.00 0.00 0.00 21 1010.2
20260901220044 27 127 11.3 22.5 0.00 0.00 0.00 21 1010.4
20260901214557 27 171 6.4 19.3 0.00 0.00 0.00 21 1010.6
20260901213039 27 168 4.8 22.5 0.00 0.00 0.00 21 1010.8
20260901211541 27 171 11.3 27.4 0.00 0.00 0.00 22 1011.1
20260901210054 27 182 19.3 25.7 0.00 0.00 0.00 21 1011.2
20260901204544 27 133 12.9 24.1 0.00 0.00 0.00 22 1011.2
20260901203047 27 164 16.1 27.4 0.00 0.00 0.00 23 1011.4
20260901201544 27 154 6.4 20.9 0.00 0.00 0.00 23 1011.5
20260901200044 26 77 9.7 19.3 0.00 0.00 0.00 24 1011.7
20260901194551 26 129 14.5 30.6 0.00 0.00 0.00 23 1011.9
20260901193047 26 139 14.5 25.7 0.00 0.00 0.00 24 1012.0
20260901191550 26 148 14.5 30.6 0.00 0.00 0.00 25 1012.2
20260901190050 25 103 8.0 27.4 0.00 0.00 0.00 27 1012.4
20260901184559 25 94 12.9 25.7 0.00 0.00 0.00 27 1012.5
20260901183102 24 152 9.7 29.0 0.00 0.00 0.00 29 1012.8
20260901181546 23 117 9.7 24.1 0.00 0.00 0.00 30 1013.0
20260901180045 23 145 9.7 22.5 0.00 0.00 0.00 30 1013.1
20260901174544 23 116 8.0 19.3 0.00 0.00 0.00 31 1013.3
20260901173048 22 170 9.7 17.7 0.00 0.00 0.00 32 1013.4
20260901171544 22 0 6.4 19.3 0.00 0.00 0.00 33 1013.6
20260901170045 21 96 9.7 19.3 0.00 0.00 0.00 35 1013.7
20260901164543 21 189 8.0 20.9 0.00 0.00 0.00 36 1013.7
20260901163056 21 152 6.4 22.5 0.00 0.00 0.00 37 1013.8
20260901161548 20 175 9.7 22.5 0.00 0.00 0.00 38 1013.9
20260901160044 20 100 8.0 19.3 0.00 0.00 0.00 40 1014.0
20260901154608 19 176 12.9 22.5 0.00 0.00 0.00 41 1014.0
20260901153052 18 127 4.8 17.7 0.00 0.00 0.00 43 1014.0
20260901151544 18 134 4.8 17.7 0.00 0.00 0.00 45 1014.0
20260901150054 16 56 4.8 11.3 0.00 0.00 0.00 51 1014.1
20260901144543 14 75 1.6 4.8 0.00 0.00 0.00 63 1014.1
20260901143046 12 75 1.6 4.8 0.00 0.00 0.00 67 1014.0
20260901141557 11 75 1.6 6.4 0.00 0.00 0.00 70 1013.9
20260901140051 10 75 1.6 4.8 0.00 0.00 0.00 73 1013.6
20260901134544 9 75 3.2 6.4 0.00 0.00 0.00 76 1013.6
20260901133050 8 70 4.8 8.0 0.00 0.00 0.00 74 1013.5
20260901131545 8 70 6.4 8.0 0.00 0.00 0.00 73 1013.6
20260901130043 9 70 3.2 4.8 0.00 0.00 0.00 71 1013.6
20260901124548 9 70 1.6 4.8 0.00 0.00 0.00 70 1013.6
20260901123049 10 0 0.0 3.2 0.00 0.00 0.00 68 1013.7
20260901121544 10 70 0.0 4.8 0.00 0.00 0.00 68 1013.7
20260901120051 11 340 0.0 3.2 0.00 0.00 0.00 65 1013.6
20260901114545 11 0 0.0 3.2 0.00 0.00 0.00 63 1013.7
20260901113055 11 0 0.0 3.2 0.00 0.00 0.00 62 1013.9
20260901111546 12 0 3.2 6.4 0.00 0.00 0.00 62 1013.9
20260901110050 12 334 3.2 11.3 0.00 0.00 0.00 60 1013.7
20260901104542 12 0 0.0 4.8 0.00 0.00 0.00 58 1013.9
20260901103059 13 62 0.0 3.2 0.00 0.00 0.00 58 1014.0
20260901101545 13 0 0.0 4.8 0.00 0.00 0.00 57 1013.9
20260901100046 13 62 3.2 6.4 0.00 0.00 0.00 56 1014.2
20260901094542 14 70 3.2 14.5 0.00 0.00 0.00 53 1014.1